Zurück zum Katalog

SHERPA-AC1

AktivWissenschaftSSO
NORAD 52763·PAYLOAD·🇺🇸 United States

Gestartet May 25, 2022 von Cape Canaveral Space Force Station

Loading…

Nächste Überflüge (nächste 24 Stunden)

TLE

AktuellSource: Space-Track

Epoche: Sep 14, 2026, 09:35 UTC

1 52763U 22057AH  26257.39954510  .00006405  00000-0  17716-3 0  9997
2 52763  97.6813  50.4893 0008429 128.1001 232.1004 15.37363217239402

Verfolge SHERPA-AC1 in Echtzeit mit AllMySat

Download on the App Store